Terug naar catalogus

TIANMU-1 QIXIANG XINGZOU 02

ActiefWeerSSO
NORAD 55137·PAYLOAD·🇨🇳 China
Deze satellietnaam is nog niet bevestigd door officiële bronnen.

Gelanceerd Jan 9, 2023 vanaf Jiuquan Satellite Launch Center

Loading…

Volgende Passages (komende 24 uur)

TLE

VersSource: Space-Track

Epoch: Sep 14, 2026, 15:25 UTC

1 55137U 23003E   26257.64238975  .00021180  00000-0  27488-3 0  9999
2 55137  97.1355 333.1792 0004605 130.7346 229.4312 15.58844340206182

Volg TIANMU-1 QIXIANG XINGZOU 02 in realtime met AllMySat

Download on the App Store